Year,Month,Day,Hour,Minute,Value (Times are PST for temperature in C)
2020,01,28,00,00,5.50
2020,01,28,00,01,5.50
2020,01,28,00,02,5.50
2020,01,28,00,03,5.50
2020,01,28,00,04,5.50
2020,01,28,00,05,5.50
2020,01,28,00,06,5.50
2020,01,28,00,07,5.50
2020,01,28,00,08,5.50
2020,01,28,00,09,5.50
2020,01,28,00,10,5.50
2020,01,28,00,11,5.50
2020,01,28,00,12,5.50
2020,01,28,00,13,5.50
2020,01,28,00,14,5.50
2020,01,28,00,15,5.50
2020,01,28,00,16,5.50
2020,01,28,00,17,5.50
2020,01,28,00,18,5.50
2020,01,28,00,19,5.50
2020,01,28,00,20,5.50
2020,01,28,00,21,5.40
2020,01,28,00,22,5.50
2020,01,28,00,23,5.50
2020,01,28,00,24,5.50
2020,01,28,00,25,5.50
2020,01,28,00,26,5.40
2020,01,28,00,27,5.50
2020,01,28,00,28,5.50
2020,01,28,00,29,5.40
2020,01,28,00,30,5.50
2020,01,28,00,31,5.50
2020,01,28,00,32,5.50
2020,01,28,00,33,5.50
2020,01,28,00,34,5.50
2020,01,28,00,35,5.50
2020,01,28,00,36,5.50
2020,01,28,00,37,5.50
2020,01,28,00,38,5.50
2020,01,28,00,39,5.50
2020,01,28,00,40,5.50
2020,01,28,00,41,5.50
2020,01,28,00,42,5.50
2020,01,28,00,43,5.50
2020,01,28,00,44,5.50
2020,01,28,00,45,5.50
2020,01,28,00,46,5.50
2020,01,28,00,47,5.50
2020,01,28,00,48,5.50
2020,01,28,00,49,5.50
2020,01,28,00,50,5.50
2020,01,28,00,51,5.50
2020,01,28,00,52,5.50
2020,01,28,00,53,5.50
2020,01,28,00,54,5.50
2020,01,28,00,55,5.50
2020,01,28,00,56,5.50
2020,01,28,00,57,5.50
2020,01,28,00,58,5.50
2020,01,28,00,59,5.50
2020,01,28,01,00,5.50
2020,01,28,01,01,5.50
2020,01,28,01,02,5.50
2020,01,28,01,03,5.50
2020,01,28,01,04,5.50
2020,01,28,01,05,5.50
2020,01,28,01,06,5.50
2020,01,28,01,07,5.50
2020,01,28,01,08,5.50
2020,01,28,01,09,5.40
2020,01,28,01,10,5.40
2020,01,28,01,11,5.40
2020,01,28,01,12,5.40
2020,01,28,01,13,5.40
2020,01,28,01,14,5.40
2020,01,28,01,15,5.40
2020,01,28,01,16,5.40
2020,01,28,01,17,5.40
2020,01,28,01,18,5.40
2020,01,28,01,19,5.40
2020,01,28,01,20,5.40
2020,01,28,01,21,5.40
2020,01,28,01,22,5.40
2020,01,28,01,23,5.40
2020,01,28,01,24,5.40
2020,01,28,01,25,5.40
2020,01,28,01,26,5.40
2020,01,28,01,27,5.40
2020,01,28,01,28,5.40
2020,01,28,01,29,5.40
2020,01,28,01,30,5.40
2020,01,28,01,31,5.30
2020,01,28,01,32,5.30
2020,01,28,01,33,5.30
2020,01,28,01,34,5.30
2020,01,28,01,35,5.30
2020,01,28,01,36,5.30
2020,01,28,01,37,5.30
2020,01,28,01,38,5.30
2020,01,28,01,39,5.30
2020,01,28,01,40,5.30
2020,01,28,01,41,5.30
2020,01,28,01,42,5.30
2020,01,28,01,43,5.30
2020,01,28,01,44,5.30
2020,01,28,01,45,5.30
2020,01,28,01,46,5.30
2020,01,28,01,47,5.30
2020,01,28,01,48,5.30
2020,01,28,01,49,5.30
2020,01,28,01,50,5.30
2020,01,28,01,51,5.30
2020,01,28,01,52,5.30
2020,01,28,01,53,5.30
2020,01,28,01,54,5.30
2020,01,28,01,55,5.30
2020,01,28,01,56,5.30
2020,01,28,01,57,5.30
2020,01,28,01,58,5.40
2020,01,28,01,59,5.40
2020,01,28,02,00,5.40
2020,01,28,02,01,5.40
2020,01,28,02,02,5.40
2020,01,28,02,03,5.40
2020,01,28,02,04,5.40
2020,01,28,02,05,5.40
2020,01,28,02,06,5.40
2020,01,28,02,07,5.40
2020,01,28,02,08,5.40
2020,01,28,02,09,5.40
2020,01,28,02,10,5.50
2020,01,28,02,11,5.40
2020,01,28,02,12,5.40
2020,01,28,02,13,5.40
2020,01,28,02,14,5.50
2020,01,28,02,15,5.50
2020,01,28,02,16,5.50
2020,01,28,02,17,5.50
2020,01,28,02,18,5.50
2020,01,28,02,19,5.50
2020,01,28,02,20,5.50
2020,01,28,02,21,5.50
2020,01,28,02,22,5.50
2020,01,28,02,23,5.50
2020,01,28,02,24,5.50
2020,01,28,02,25,5.50
2020,01,28,02,26,5.50
2020,01,28,02,27,5.50
2020,01,28,02,28,5.50
2020,01,28,02,29,5.50
2020,01,28,02,30,5.50
2020,01,28,02,31,5.50
2020,01,28,02,32,5.40
2020,01,28,02,33,5.40
2020,01,28,02,34,5.40
2020,01,28,02,35,5.40
2020,01,28,02,36,5.40
2020,01,28,02,37,5.40
2020,01,28,02,38,5.40
2020,01,28,02,39,5.40
2020,01,28,02,40,5.40
2020,01,28,02,41,5.40
2020,01,28,02,42,5.40
2020,01,28,02,43,5.40
2020,01,28,02,44,5.30
2020,01,28,02,45,5.30
2020,01,28,02,46,5.30
2020,01,28,02,47,5.30
2020,01,28,02,48,5.30
2020,01,28,02,49,5.30
2020,01,28,02,50,5.30
2020,01,28,02,51,5.30
2020,01,28,02,52,5.30
2020,01,28,02,53,5.30
2020,01,28,02,54,5.30
2020,01,28,02,55,5.20
2020,01,28,02,56,5.20
2020,01,28,02,57,5.20
2020,01,28,02,58,5.20
2020,01,28,02,59,5.20
2020,01,28,03,00,5.20
2020,01,28,03,01,5.20
2020,01,28,03,02,5.20
2020,01,28,03,03,5.20
2020,01,28,03,04,5.20
2020,01,28,03,05,5.20
2020,01,28,03,06,5.20
2020,01,28,03,07,5.20
2020,01,28,03,08,5.20
2020,01,28,03,09,5.20
2020,01,28,03,10,5.20
2020,01,28,03,11,5.20
2020,01,28,03,12,5.20
2020,01,28,03,13,5.20
2020,01,28,03,14,5.10
2020,01,28,03,15,5.10
2020,01,28,03,16,5.10
2020,01,28,03,17,5.10
2020,01,28,03,18,5.10
2020,01,28,03,19,5.10
2020,01,28,03,20,5.10
2020,01,28,03,21,5.10
2020,01,28,03,22,5.10
2020,01,28,03,23,5.10
2020,01,28,03,24,5.10
2020,01,28,03,25,5.10
2020,01,28,03,26,5.00
2020,01,28,03,27,5.00
2020,01,28,03,28,5.00
2020,01,28,03,29,5.00
2020,01,28,03,30,5.00
2020,01,28,03,31,5.00
2020,01,28,03,32,5.00
2020,01,28,03,33,4.90
2020,01,28,03,34,5.00
2020,01,28,03,35,4.90
2020,01,28,03,36,4.90
2020,01,28,03,37,4.90
2020,01,28,03,38,4.90
2020,01,28,03,39,4.90
2020,01,28,03,40,4.90
2020,01,28,03,41,4.90
2020,01,28,03,42,4.90
2020,01,28,03,43,4.90
2020,01,28,03,44,4.90
2020,01,28,03,45,4.90
2020,01,28,03,46,4.90
2020,01,28,03,47,4.90
2020,01,28,03,48,4.90
2020,01,28,03,49,4.90
2020,01,28,03,50,4.90
2020,01,28,03,51,4.90
2020,01,28,03,52,4.90
2020,01,28,03,53,4.90
2020,01,28,03,54,4.90
2020,01,28,03,55,4.90
2020,01,28,03,56,4.90
2020,01,28,03,57,4.90
2020,01,28,03,58,4.90
2020,01,28,03,59,4.90
2020,01,28,04,00,4.90
2020,01,28,04,01,4.90
2020,01,28,04,02,4.90
2020,01,28,04,03,4.90
2020,01,28,04,04,4.90
2020,01,28,04,05,4.90
2020,01,28,04,06,4.90
2020,01,28,04,07,5.00
2020,01,28,04,08,5.00
2020,01,28,04,09,5.00
2020,01,28,04,10,5.10
2020,01,28,04,11,5.10
2020,01,28,04,12,5.10
2020,01,28,04,13,5.10
2020,01,28,04,14,5.10
2020,01,28,04,15,5.10
2020,01,28,04,16,5.10
2020,01,28,04,17,5.10
2020,01,28,04,18,5.20
2020,01,28,04,19,5.10
2020,01,28,04,20,5.10
2020,01,28,04,21,5.10
2020,01,28,04,22,5.10
2020,01,28,04,23,5.10
2020,01,28,04,24,5.10
2020,01,28,04,25,5.10
2020,01,28,04,26,5.10
2020,01,28,04,27,5.10
2020,01,28,04,28,5.10
2020,01,28,04,29,5.10
2020,01,28,04,30,5.10
2020,01,28,04,31,5.00
2020,01,28,04,32,4.90
2020,01,28,04,33,4.90
2020,01,28,04,34,4.90
2020,01,28,04,35,4.90
2020,01,28,04,36,4.90
2020,01,28,04,37,4.90
2020,01,28,04,38,4.90
2020,01,28,04,39,4.90
2020,01,28,04,40,4.90
2020,01,28,04,41,4.90
2020,01,28,09,29,5.70
2020,01,28,09,30,5.70
2020,01,28,09,31,5.70
2020,01,28,09,32,5.70
2020,01,28,09,33,5.70
2020,01,28,09,34,5.70
2020,01,28,09,35,5.70
2020,01,28,09,36,5.80
2020,01,28,09,37,5.80
2020,01,28,09,38,5.80
2020,01,28,09,39,5.80
2020,01,28,09,40,5.80
2020,01,28,09,41,5.80
2020,01,28,09,42,5.80
2020,01,28,09,43,5.80
2020,01,28,09,44,5.80
2020,01,28,09,45,5.80
2020,01,28,09,46,5.80
2020,01,28,09,47,5.80
2020,01,28,09,48,5.80
2020,01,28,09,49,5.80
2020,01,28,09,50,5.80
2020,01,28,09,51,5.70
2020,01,28,09,52,5.70
2020,01,28,09,53,5.70
2020,01,28,09,54,5.70
2020,01,28,09,55,5.70
2020,01,28,09,56,5.70
2020,01,28,09,57,5.70
2020,01,28,09,58,5.70
2020,01,28,09,59,5.70
2020,01,28,10,00,5.70
2020,01,28,10,01,5.70
2020,01,28,10,02,5.70
2020,01,28,10,03,5.70
2020,01,28,10,04,5.80
2020,01,28,10,05,5.80
2020,01,28,10,06,5.80
2020,01,28,10,07,5.80
2020,01,28,10,08,5.80
2020,01,28,10,09,5.80
2020,01,28,10,10,5.90
2020,01,28,10,11,5.90
2020,01,28,10,12,5.90
2020,01,28,10,13,5.90
2020,01,28,10,14,5.90
2020,01,28,10,15,5.90
2020,01,28,10,16,5.90
2020,01,28,10,17,5.90
2020,01,28,10,18,5.90
2020,01,28,10,19,5.90
2020,01,28,10,20,5.90
2020,01,28,10,21,5.80
2020,01,28,10,22,5.80
2020,01,28,10,23,5.80
2020,01,28,10,24,5.80
2020,01,28,10,25,5.80
2020,01,28,10,26,5.80
2020,01,28,10,27,5.80
2020,01,28,10,28,5.80
2020,01,28,10,29,5.80
2020,01,28,10,30,5.80
2020,01,28,10,31,5.80
2020,01,28,10,32,5.90
2020,01,28,10,33,5.90
2020,01,28,10,34,5.90
2020,01,28,10,35,5.90
2020,01,28,10,36,5.90
2020,01,28,10,37,5.90
2020,01,28,10,38,5.90
2020,01,28,10,39,6.00
2020,01,28,10,40,6.00
2020,01,28,10,41,6.00
2020,01,28,10,42,6.10
2020,01,28,10,43,6.10
2020,01,28,10,44,6.10
2020,01,28,10,45,6.10
2020,01,28,10,46,6.20
2020,01,28,10,47,6.20
2020,01,28,10,48,6.20
2020,01,28,10,49,6.20
2020,01,28,10,50,6.30
2020,01,28,10,51,6.30
2020,01,28,10,52,6.30
2020,01,28,10,53,6.30
2020,01,28,10,54,6.30
2020,01,28,10,55,6.30
2020,01,28,10,56,6.30
2020,01,28,10,57,6.40
2020,01,28,10,58,6.40
2020,01,28,10,59,6.40
2020,01,28,11,00,6.40
2020,01,28,11,01,6.40
2020,01,28,11,02,6.50
2020,01,28,11,03,6.50
2020,01,28,11,04,6.50
2020,01,28,11,05,6.50
2020,01,28,11,06,6.50
2020,01,28,11,07,6.50
2020,01,28,11,08,6.50
2020,01,28,11,09,6.50
2020,01,28,11,10,6.50
2020,01,28,11,11,6.50
2020,01,28,11,12,6.50
2020,01,28,11,13,6.50
2020,01,28,11,14,6.50
2020,01,28,11,15,6.50
2020,01,28,11,16,6.50
2020,01,28,11,17,6.50
2020,01,28,11,18,6.50
2020,01,28,11,19,6.50
2020,01,28,11,20,6.60
2020,01,28,11,21,6.60
2020,01,28,11,22,6.60
2020,01,28,11,23,6.60
2020,01,28,11,24,6.60
2020,01,28,11,25,6.60
2020,01,28,11,26,6.70
2020,01,28,11,27,6.70
2020,01,28,11,28,6.70
2020,01,28,11,29,6.70
2020,01,28,11,30,6.70
2020,01,28,11,31,6.70
2020,01,28,11,32,6.70
2020,01,28,11,33,6.70
2020,01,28,11,34,6.70
2020,01,28,11,35,6.70
2020,01,28,11,36,6.80
2020,01,28,11,37,6.80
2020,01,28,11,38,6.80
2020,01,28,11,39,6.80
2020,01,28,11,40,6.80
2020,01,28,11,41,6.70
2020,01,28,11,42,6.70
2020,01,28,11,43,6.70
2020,01,28,11,44,6.70
2020,01,28,11,45,6.70
2020,01,28,11,46,6.70
2020,01,28,11,47,6.70
2020,01,28,11,48,6.70
2020,01,28,11,49,6.70
2020,01,28,11,50,6.70
2020,01,28,11,51,6.70
2020,01,28,11,52,6.70
2020,01,28,11,53,6.70
2020,01,28,11,54,6.70
2020,01,28,11,55,6.70
2020,01,28,11,56,6.80
2020,01,28,11,57,6.80
2020,01,28,11,58,6.80
2020,01,28,11,59,6.80
2020,01,28,12,00,6.80
2020,01,28,12,01,6.80
2020,01,28,12,02,6.80
2020,01,28,12,03,6.80
2020,01,28,12,04,6.80
2020,01,28,12,05,6.80
2020,01,28,12,06,6.80
2020,01,28,12,07,6.80
2020,01,28,12,08,6.80
2020,01,28,12,09,6.80
2020,01,28,12,10,6.80
2020,01,28,12,11,6.70
2020,01,28,12,12,6.70
2020,01,28,12,13,6.70
2020,01,28,12,14,6.70
2020,01,28,12,15,6.70
2020,01,28,12,16,6.70
2020,01,28,12,17,6.70
2020,01,28,12,18,6.70
2020,01,28,12,19,6.60
2020,01,28,12,20,6.60
2020,01,28,12,21,6.60
2020,01,28,12,22,6.70
2020,01,28,12,23,6.70
2020,01,28,12,24,6.70
2020,01,28,12,25,6.70
2020,01,28,12,26,6.70
2020,01,28,12,27,6.70
2020,01,28,12,28,6.70
2020,01,28,12,29,6.70
2020,01,28,12,30,6.70
2020,01,28,12,31,6.70
2020,01,28,12,32,6.70
2020,01,28,12,33,6.70
2020,01,28,12,34,6.70
2020,01,28,12,35,6.70
2020,01,28,12,36,6.70
2020,01,28,12,37,6.70
2020,01,28,12,38,6.70
2020,01,28,12,39,6.80
2020,01,28,12,40,6.80
2020,01,28,12,41,6.80
2020,01,28,12,42,6.80
2020,01,28,12,43,6.80
2020,01,28,12,44,6.80
2020,01,28,12,45,6.90
2020,01,28,12,46,6.90
2020,01,28,12,47,6.90
2020,01,28,12,48,6.90
2020,01,28,12,49,6.90
2020,01,28,12,50,6.90
2020,01,28,12,51,6.90
2020,01,28,12,52,6.90
2020,01,28,12,53,6.90
2020,01,28,12,54,6.90
2020,01,28,12,55,7.00
2020,01,28,12,56,7.00
2020,01,28,12,57,7.00
2020,01,28,12,58,7.00
2020,01,28,12,59,7.00
2020,01,28,13,00,7.10
2020,01,28,13,01,7.10
2020,01,28,13,02,7.10
2020,01,28,13,03,7.10
2020,01,28,13,04,7.10
2020,01,28,13,05,7.10
2020,01,28,13,06,7.10
2020,01,28,13,07,7.00
2020,01,28,13,08,6.90
2020,01,28,13,09,6.90
2020,01,28,13,10,6.90
2020,01,28,13,11,6.80
2020,01,28,13,12,6.80
2020,01,28,13,13,6.80
2020,01,28,13,14,6.80
2020,01,28,13,15,6.80
2020,01,28,13,16,6.90
2020,01,28,13,17,6.90
2020,01,28,13,18,6.90
2020,01,28,13,19,6.90
2020,01,28,13,20,6.90
2020,01,28,13,21,6.90
2020,01,28,13,22,6.90
2020,01,28,13,23,6.90
2020,01,28,13,24,6.90
2020,01,28,13,25,6.90
2020,01,28,13,26,6.90
2020,01,28,13,27,6.80
2020,01,28,13,28,6.80
2020,01,28,13,29,6.80
2020,01,28,13,30,6.80
2020,01,28,13,31,6.80
2020,01,28,13,32,6.70
2020,01,28,13,33,6.70
2020,01,28,13,34,6.70
2020,01,28,13,35,6.70
2020,01,28,13,36,6.70
2020,01,28,13,37,6.70
2020,01,28,13,38,6.70
2020,01,28,13,39,6.70
2020,01,28,13,40,6.70
2020,01,28,13,41,6.70
2020,01,28,13,42,6.70
2020,01,28,13,43,6.70
2020,01,28,13,44,6.70
2020,01,28,13,45,6.80
2020,01,28,13,46,6.80
2020,01,28,13,47,6.80
2020,01,28,13,48,6.90
2020,01,28,13,49,6.90
2020,01,28,13,50,6.90
2020,01,28,13,51,6.90
2020,01,28,13,52,6.90
2020,01,28,13,53,6.90
2020,01,28,13,54,6.90
2020,01,28,13,55,6.90
2020,01,28,13,56,6.90
2020,01,28,13,57,6.90
2020,01,28,13,58,6.90
2020,01,28,13,59,6.90
2020,01,28,14,00,6.80
2020,01,28,14,01,6.80
2020,01,28,14,02,6.80
2020,01,28,14,03,6.80
2020,01,28,14,04,6.80
2020,01,28,14,05,6.80
2020,01,28,14,06,6.80
2020,01,28,14,07,6.80
2020,01,28,14,08,6.80
2020,01,28,14,09,6.80
2020,01,28,14,10,6.80
2020,01,28,14,11,6.80
2020,01,28,14,12,6.80
2020,01,28,14,13,6.80
2020,01,28,14,14,6.80
2020,01,28,14,15,6.80
2020,01,28,14,16,6.80
2020,01,28,14,17,6.80
2020,01,28,14,18,6.80
2020,01,28,14,19,6.80
2020,01,28,14,20,6.80
2020,01,28,14,21,6.80
2020,01,28,14,22,6.80
2020,01,28,14,23,6.80
2020,01,28,14,24,6.80
2020,01,28,14,25,6.80
2020,01,28,14,26,6.80
2020,01,28,14,27,6.80
2020,01,28,14,28,6.80
2020,01,28,14,29,6.80
2020,01,28,14,30,6.90
2020,01,28,14,31,6.90
2020,01,28,14,32,6.90
2020,01,28,14,33,6.90
2020,01,28,14,34,6.90
2020,01,28,14,35,6.90
2020,01,28,14,36,6.80
2020,01,28,14,37,6.90
2020,01,28,14,38,6.90
2020,01,28,14,39,6.80
2020,01,28,14,40,6.80
2020,01,28,14,41,6.80
2020,01,28,14,42,6.80
2020,01,28,14,43,6.90
2020,01,28,14,44,6.90
2020,01,28,14,45,6.90
2020,01,28,14,46,6.90
2020,01,28,14,47,6.90
2020,01,28,14,48,6.90
2020,01,28,14,49,6.90
2020,01,28,14,50,6.90
2020,01,28,14,51,6.90
2020,01,28,14,52,6.90
2020,01,28,14,53,6.90
2020,01,28,14,54,6.90
2020,01,28,14,55,6.90
2020,01,28,14,56,6.90
2020,01,28,14,57,6.90
2020,01,28,14,58,6.90
2020,01,28,14,59,6.90
2020,01,28,15,00,6.90
2020,01,28,15,01,6.90
2020,01,28,15,02,6.90
2020,01,28,15,03,6.90
2020,01,28,15,04,6.90
2020,01,28,15,05,6.90
2020,01,28,15,06,6.90
2020,01,28,15,07,6.90
2020,01,28,15,08,6.90
2020,01,28,15,09,6.90
2020,01,28,15,10,6.90
2020,01,28,15,11,6.90
2020,01,28,15,12,6.90
2020,01,28,15,13,6.80
2020,01,28,15,14,6.80
2020,01,28,15,15,6.80
2020,01,28,15,16,6.80
2020,01,28,15,17,6.80
2020,01,28,15,18,6.80
2020,01,28,15,19,6.80
2020,01,28,15,20,6.80
2020,01,28,15,21,6.80
2020,01,28,15,22,6.80
2020,01,28,15,23,6.80
2020,01,28,15,24,6.80
2020,01,28,15,25,6.80
2020,01,28,15,26,6.80
2020,01,28,15,27,6.80
2020,01,28,15,28,6.80
2020,01,28,15,29,6.80
2020,01,28,15,30,6.80
2020,01,28,15,31,6.80
2020,01,28,15,32,6.80
2020,01,28,15,33,6.80
2020,01,28,15,34,6.80
2020,01,28,15,35,6.80
2020,01,28,15,36,6.80
2020,01,28,15,37,6.80
2020,01,28,15,38,6.80
2020,01,28,15,39,6.80
2020,01,28,15,40,6.80
2020,01,28,15,41,6.80
2020,01,28,15,42,6.80
2020,01,28,15,43,6.80
2020,01,28,15,44,6.80
2020,01,28,15,45,6.80
2020,01,28,15,46,6.80
2020,01,28,15,47,6.80
2020,01,28,15,48,6.80
2020,01,28,15,49,6.80
2020,01,28,15,50,6.80
2020,01,28,15,51,6.90
2020,01,28,15,52,6.90
2020,01,28,15,53,6.90
2020,01,28,15,54,6.90
2020,01,28,15,55,6.90
2020,01,28,15,56,6.90
2020,01,28,15,57,6.90
2020,01,28,15,58,6.90
2020,01,28,15,59,6.90
2020,01,28,16,00,6.90
2020,01,28,16,01,6.90
2020,01,28,16,02,6.90
2020,01,28,16,03,6.90
2020,01,28,16,04,6.90
2020,01,28,16,05,6.90
2020,01,28,16,06,6.90
2020,01,28,16,07,6.90
2020,01,28,16,08,6.90
2020,01,28,16,09,6.90
2020,01,28,16,10,6.90
2020,01,28,16,11,6.90
2020,01,28,16,12,6.90
2020,01,28,16,13,6.90
2020,01,28,16,14,6.90
2020,01,28,16,15,6.90
2020,01,28,16,16,6.90
2020,01,28,16,17,6.90
2020,01,28,16,18,6.90
2020,01,28,16,19,6.90
2020,01,28,16,20,6.90
2020,01,28,16,21,6.90
2020,01,28,16,22,6.90
2020,01,28,16,23,6.90
2020,01,28,16,24,6.90
2020,01,28,16,25,6.90
2020,01,28,16,26,6.90
2020,01,28,16,27,6.80
2020,01,28,16,28,6.80
2020,01,28,16,29,6.80
2020,01,28,16,30,6.80
2020,01,28,16,31,6.80
2020,01,28,16,32,6.80
2020,01,28,16,33,6.80
2020,01,28,16,34,6.80
2020,01,28,16,35,6.80
2020,01,28,16,36,6.80
2020,01,28,16,37,6.80
2020,01,28,16,38,6.70
2020,01,28,16,39,6.70
2020,01,28,16,40,6.70
2020,01,28,16,41,6.70
2020,01,28,16,42,6.70
2020,01,28,16,43,6.70
2020,01,28,16,44,6.70
2020,01,28,16,45,6.70
2020,01,28,16,46,6.70
2020,01,28,16,47,6.70
2020,01,28,16,48,6.70
2020,01,28,16,49,6.70
2020,01,28,16,50,6.70
2020,01,28,16,51,6.70
2020,01,28,16,52,6.70
2020,01,28,16,53,6.70
2020,01,28,16,54,6.70
2020,01,28,16,55,6.70
2020,01,28,16,56,6.70
2020,01,28,16,57,6.70
2020,01,28,16,58,6.70
2020,01,28,16,59,6.70
2020,01,28,17,00,6.70
2020,01,28,17,01,6.70
2020,01,28,17,02,6.70
2020,01,28,17,03,6.70
2020,01,28,17,04,6.70
2020,01,28,17,05,6.70
2020,01,28,17,06,6.70
2020,01,28,17,07,6.70
2020,01,28,17,08,6.70
2020,01,28,17,09,6.70
2020,01,28,17,10,6.70
2020,01,28,17,11,6.70
2020,01,28,17,12,6.70
2020,01,28,17,13,6.70
2020,01,28,17,14,6.70
2020,01,28,17,15,6.60
2020,01,28,17,16,6.60
2020,01,28,17,17,6.60
2020,01,28,17,18,6.60
2020,01,28,17,19,6.60
2020,01,28,17,20,6.60
2020,01,28,17,21,6.60
2020,01,28,17,22,6.60
2020,01,28,17,23,6.60
2020,01,28,17,24,6.60
2020,01,28,17,25,6.60
2020,01,28,17,26,6.60
2020,01,28,17,27,6.60
2020,01,28,17,28,6.60
2020,01,28,17,29,6.60
2020,01,28,17,30,6.60
2020,01,28,17,31,6.60
2020,01,28,17,32,6.60
2020,01,28,17,33,6.60
2020,01,28,17,34,6.60
2020,01,28,17,35,6.60
2020,01,28,17,36,6.60
2020,01,28,17,37,6.60
2020,01,28,17,38,6.60
2020,01,28,17,39,6.60
2020,01,28,17,40,6.60
2020,01,28,17,41,6.60
2020,01,28,17,42,6.60
2020,01,28,17,43,6.60
2020,01,28,17,44,6.60
2020,01,28,17,45,6.60
2020,01,28,17,46,6.60
2020,01,28,17,47,6.60
2020,01,28,17,48,6.60
2020,01,28,17,49,6.60
2020,01,28,17,50,6.60
2020,01,28,17,51,6.50
2020,01,28,17,52,6.60
2020,01,28,17,53,6.50
2020,01,28,17,54,6.50
2020,01,28,17,55,6.50
2020,01,28,17,56,6.50
2020,01,28,17,57,6.50
2020,01,28,17,58,6.50
2020,01,28,17,59,6.50
2020,01,28,18,00,6.50
2020,01,28,18,01,6.50
2020,01,28,18,02,6.50
2020,01,28,18,03,6.50
2020,01,28,18,04,6.50
2020,01,28,18,05,6.50
2020,01,28,18,06,6.50
2020,01,28,18,07,6.50
2020,01,28,18,08,6.50
2020,01,28,18,09,6.50
2020,01,28,18,10,6.50
2020,01,28,18,11,6.50
2020,01,28,18,12,6.50
2020,01,28,18,13,6.60
2020,01,28,18,14,6.60
2020,01,28,18,15,6.50
2020,01,28,18,16,6.60
2020,01,28,18,17,6.60
2020,01,28,18,18,6.60
2020,01,28,18,19,6.60
2020,01,28,18,20,6.60
2020,01,28,18,21,6.60
2020,01,28,18,22,6.60
2020,01,28,18,23,6.60
2020,01,28,18,24,6.60
2020,01,28,18,25,6.60
2020,01,28,18,26,6.60
2020,01,28,18,27,6.60
2020,01,28,18,28,6.60
2020,01,28,18,29,6.60
2020,01,28,18,30,6.60
2020,01,28,18,31,6.60
2020,01,28,18,32,6.60
2020,01,28,18,33,6.60
2020,01,28,18,34,6.50
2020,01,28,18,35,6.50
2020,01,28,18,36,6.50
2020,01,28,18,37,6.50
2020,01,28,18,38,6.50
2020,01,28,18,39,6.50
2020,01,28,18,40,6.50
2020,01,28,18,41,6.50
2020,01,28,18,42,6.50
2020,01,28,18,43,6.50
2020,01,28,18,44,6.50
2020,01,28,18,45,6.60
2020,01,28,18,46,6.60
2020,01,28,18,47,6.60
2020,01,28,18,48,6.60
2020,01,28,18,49,6.60
2020,01,28,18,50,6.50
2020,01,28,18,51,6.50
2020,01,28,18,52,6.50
2020,01,28,18,53,6.50
2020,01,28,18,54,6.50
2020,01,28,18,55,6.50
2020,01,28,18,56,6.50
2020,01,28,18,57,6.50
2020,01,28,18,58,6.50
2020,01,28,18,59,6.50
2020,01,28,19,00,6.50
2020,01,28,19,01,6.50
2020,01,28,19,02,6.50
2020,01,28,19,03,6.50
2020,01,28,19,04,6.50
2020,01,28,19,05,6.50
2020,01,28,19,06,6.40
2020,01,28,19,07,6.40
2020,01,28,19,08,6.40
2020,01,28,19,09,6.40
2020,01,28,19,10,6.40
2020,01,28,19,11,6.40
2020,01,28,19,12,6.40
2020,01,28,19,13,6.40
2020,01,28,19,14,6.40
2020,01,28,19,15,6.40
2020,01,28,19,16,6.40
2020,01,28,19,17,6.40
2020,01,28,19,18,6.40
2020,01,28,19,19,6.40
2020,01,28,19,20,6.40
2020,01,28,19,21,6.40
2020,01,28,19,22,6.40
2020,01,28,19,23,6.40
2020,01,28,19,24,6.40
2020,01,28,19,25,6.40
2020,01,28,19,26,6.50
2020,01,28,19,27,6.50
2020,01,28,19,28,6.50
2020,01,28,19,29,6.50
2020,01,28,19,30,6.50
2020,01,28,19,31,6.50
2020,01,28,19,32,6.50
2020,01,28,19,33,6.50
2020,01,28,19,34,6.50
2020,01,28,19,35,6.50
2020,01,28,19,36,6.40
2020,01,28,19,37,6.40
2020,01,28,19,38,6.40
2020,01,28,19,39,6.50
2020,01,28,19,40,6.40
2020,01,28,19,41,6.40
2020,01,28,19,42,6.50
2020,01,28,19,43,6.40
2020,01,28,19,44,6.40
2020,01,28,19,45,6.40
2020,01,28,19,46,6.40
2020,01,28,19,47,6.40
2020,01,28,19,48,6.40
2020,01,28,19,49,6.40
2020,01,28,19,50,6.40
2020,01,28,19,51,6.40
2020,01,28,19,52,6.40
2020,01,28,19,53,6.40
2020,01,28,19,54,6.40
2020,01,28,19,55,6.40
2020,01,28,19,56,6.40
2020,01,28,19,57,6.40
2020,01,28,19,58,6.40
2020,01,28,19,59,6.40
2020,01,28,20,00,6.40
2020,01,28,20,01,6.40
2020,01,28,20,02,6.40
2020,01,28,20,03,6.40
2020,01,28,20,04,6.40
2020,01,28,20,05,6.40
2020,01,28,20,06,6.40
2020,01,28,20,07,6.40
2020,01,28,20,08,6.40
2020,01,28,20,09,6.40
2020,01,28,20,10,6.40
2020,01,28,20,11,6.40
2020,01,28,20,12,6.40
2020,01,28,20,13,6.40
2020,01,28,20,14,6.40
2020,01,28,20,15,6.40
2020,01,28,20,16,6.40
2020,01,28,20,17,6.40
2020,01,28,20,18,6.40
2020,01,28,20,19,6.40
2020,01,28,20,20,6.40
2020,01,28,20,21,6.40
2020,01,28,20,22,6.40
2020,01,28,20,23,6.40
2020,01,28,20,24,6.40
2020,01,28,20,25,6.30
2020,01,28,20,26,6.30
2020,01,28,20,27,6.30
2020,01,28,20,28,6.30
2020,01,28,20,29,6.30
2020,01,28,20,30,6.30
2020,01,28,20,31,6.30
2020,01,28,20,32,6.20
2020,01,28,20,33,6.20
2020,01,28,20,34,6.20
2020,01,28,20,35,6.20
2020,01,28,20,36,6.20
2020,01,28,20,37,6.20
2020,01,28,20,38,6.10
2020,01,28,20,39,6.10
2020,01,28,20,40,6.10
2020,01,28,20,41,6.10
2020,01,28,20,42,6.10
2020,01,28,20,43,6.10
2020,01,28,20,44,6.10
2020,01,28,20,45,6.10
2020,01,28,20,46,6.10
2020,01,28,20,47,6.10
2020,01,28,20,48,6.10
2020,01,28,20,49,6.20
2020,01,28,20,50,6.20
2020,01,28,20,51,6.20
2020,01,28,20,52,6.20
2020,01,28,20,53,6.20
2020,01,28,20,54,6.20
2020,01,28,20,55,6.20
2020,01,28,20,56,6.20
2020,01,28,20,57,6.20
2020,01,28,20,58,6.20
2020,01,28,20,59,6.20
2020,01,28,21,00,6.20
2020,01,28,21,01,6.20
2020,01,28,21,02,6.20
2020,01,28,21,03,6.20
2020,01,28,21,04,6.20
2020,01,28,21,05,6.20
2020,01,28,21,06,6.20
2020,01,28,21,07,6.20
2020,01,28,21,08,6.20
2020,01,28,21,09,6.20
2020,01,28,21,10,6.20
2020,01,28,21,11,6.20
2020,01,28,21,12,6.20
2020,01,28,21,13,6.20
2020,01,28,21,14,6.20
2020,01,28,21,15,6.20
2020,01,28,21,16,6.10
2020,01,28,21,17,6.10
2020,01,28,21,18,6.10
2020,01,28,21,19,6.10
2020,01,28,21,20,6.10
2020,01,28,21,21,6.10
2020,01,28,21,22,6.10
2020,01,28,21,23,6.10
2020,01,28,21,24,6.10
2020,01,28,21,25,6.10
2020,01,28,21,26,6.20
2020,01,28,21,27,6.20
2020,01,28,21,28,6.20
2020,01,28,21,29,6.20
2020,01,28,21,30,6.20
2020,01,28,21,31,6.20
2020,01,28,21,32,6.20
2020,01,28,21,33,6.20
2020,01,28,21,34,6.20
2020,01,28,21,35,6.20
2020,01,28,21,36,6.20
2020,01,28,21,37,6.20
2020,01,28,21,38,6.20
2020,01,28,21,39,6.20
2020,01,28,21,40,6.20
2020,01,28,21,41,6.20
2020,01,28,21,42,6.20
2020,01,28,21,43,6.20
2020,01,28,21,44,6.20
2020,01,28,21,45,6.20
2020,01,28,21,46,6.20
2020,01,28,21,47,6.20
2020,01,28,21,48,6.20
2020,01,28,21,49,6.20
2020,01,28,21,50,6.20
2020,01,28,21,51,6.20
2020,01,28,21,52,6.20
2020,01,28,21,53,6.20
2020,01,28,21,54,6.20
2020,01,28,21,55,6.20
2020,01,28,21,56,6.20
2020,01,28,21,57,6.20
2020,01,28,21,58,6.20
2020,01,28,21,59,6.20
2020,01,28,22,00,6.20
2020,01,28,22,01,6.20
2020,01,28,22,02,6.20
2020,01,28,22,03,6.20
2020,01,28,22,04,6.20
2020,01,28,22,05,6.20
2020,01,28,22,06,6.20
2020,01,28,22,07,6.20
2020,01,28,22,08,6.20
2020,01,28,22,09,6.20
2020,01,28,22,10,6.20
2020,01,28,22,11,6.20
2020,01,28,22,12,6.20
2020,01,28,22,13,6.20
2020,01,28,22,14,6.20
2020,01,28,22,15,6.20
2020,01,28,22,16,6.10
2020,01,28,22,17,6.10
2020,01,28,22,18,6.10
2020,01,28,22,19,6.10
2020,01,28,22,20,6.10
2020,01,28,22,21,6.10
2020,01,28,22,22,6.10
2020,01,28,22,23,6.10
2020,01,28,22,24,6.10
2020,01,28,22,25,6.10
2020,01,28,22,26,6.10
2020,01,28,22,27,6.10
2020,01,28,22,28,6.10
2020,01,28,22,29,6.00
2020,01,28,22,30,6.00
2020,01,28,22,31,6.00
2020,01,28,22,32,6.00
2020,01,28,22,33,6.00
2020,01,28,22,34,6.00
2020,01,28,22,35,6.10
2020,01,28,22,36,6.00
2020,01,28,22,37,6.10
2020,01,28,22,38,6.10
2020,01,28,22,39,6.10
2020,01,28,22,40,6.10
2020,01,28,22,41,6.10
2020,01,28,22,42,6.00
2020,01,28,22,43,6.10
2020,01,28,22,44,6.10
2020,01,28,22,45,6.10
2020,01,28,22,46,6.10
2020,01,28,22,47,6.10
2020,01,28,22,48,6.10
2020,01,28,22,49,6.10
2020,01,28,22,50,6.00
2020,01,28,22,51,6.00
2020,01,28,22,52,6.00
2020,01,28,22,53,6.00